0 HST 1 20580U 90037B 25214.03585465 .00006073 00000-0 22305-3 0 9995 2 20580 28.4682 94.0393 0001709 235.5856 124.4577 15.25748314739690 0 ISS (ZARYA) 1 25544U 98067A 25215.46272211 .00014619 00000-0 26065-3 0 9993 2 25544 51.6349 72.7526 0001790 135.4885 294.4671 15.50326680522491 0 CXO 1 25867U 99040B 25217.04070135 .00000801 00000-0 00000-0 0 9996 2 25867 50.4588 127.6292 8344700 310.0359 0.7049 0.37799666 16129